Location: Dugenta
(41.1333°N, 14.4500°E)
Time: 14:27:59
(UTC+00:00)

Cosmos 1354 Rocket - Pass Details

Date: 03 March 2021
Orbit: 765 x 782 km, 74.0° (Epoch: 20 April)

Event Time Altitude Azimuth Distance (km) Brightness Sun altitude
Rises 18:20:51 0° 341° (NNW) 3,246 7.6 -16.8°
Reaches altitude 10° 18:23:14 10° 342° (NNW) 2,314 6.8 -17.3°
Maximum altitude 18:28:30 85° 71° (ENE) 773 3.9 -18.3°
Enters shadow 18:33:34 11° 160° (SSE) 2,232 6.1 -19.2°
